Location: El Portezuelo
(28.4984°N, 16.3589°W)
Time: 10:03:17
(UTC+00:00)

Cosmos 1626 Rocket - Pass Details

Date: 20 January 2020
Orbit: 603 x 631 km, 82.5° (Epoch: 18 February)

Event Time Altitude Azimuth Distance (km) Brightness Sun altitude
Exits shadow 06:22:44 46° 328° (NNW) 825 3.8 -20.8°
Maximum altitude 06:23:51 66° 267° (W) 666 3.4 -20.6°
Drops below altitude 10° 06:28:10 10° 184° (S) 1,963 6.2 -19.7°
Sets 06:30:24 0° 182° (S) 2,869 7.1 -19.2°
